Theta_e
296 296 296 295 295 295 295 295 294 294 294 293 293 293 293 293 292 292 292 291 291 291 291 290 290 289 289 288 288 288 288 288 287 287 287 287 287 287 286 286 286 286 285 285 285 285 285 284 285 285 285 284 284 284 284 284 284 284 284 283 283 282 282 281 281 282 284 284 284 283 281 282 282 281 282 282 281 281 282 282 282 282 282 282 282
296 296 295 295 294 294 294 294 293 293 293 293 292 292 292 292 292 291 291 291 291 291 290 290 290 289 289 288 288 288 288 288 288 288 287 287 287 287 286 286 286 285 285 285 285 284 284 284 284 284 284 284 284 284 284 283 283 283 283 283 283 283 282 281 281 281 283 284 284 283 281 281 282 282 281 281 280 280 281 281 281 281 281 281 281
295 295 295 294 294 294 293 293 293 292 292 292 292 292 292 291 291 291 290 290 290 290 290 290 289 289 288 288 288 288 288 288 288 288 287 287 287 287 286 286 285 285 285 285 284 284 284 284 284 284 284 284 284 283 283 283 283 283 283 283 282 282 282 281 280 280 281 283 283 282 280 280 282 282 281 280 279 279 279 279 279 280 280 280 280
295 294 294 294 293 293 293 292 292 292 292 291 292 291 291 291 291 290 290 290 290 290 289 289 289 288 288 288 288 288 288 288 288 288 287 287 287 286 286 285 285 285 284 284 284 284 284 284 284 284 284 283 283 283 283 283 283 282 282 282 282 282 282 281 280 280 280 281 282 282 280 279 280 281 280 279 279 278 278 278 278 279 279 279 279
294 294 293 293 293 292 292 291 291 291 291 291 291 291 291 291 290 290 290 290 289 289 289 289 288 288 288 288 288 288 288 288 288 287 287 287 287 286 286 285 285 284 284 284 284 284 284 284 284 283 283 283 283 283 283 282 282 282 282 282 282 281 281 281 280 280 280 280 281 282 280 278 279 280 279 278 278 278 278 278 278 278 278 278 278
294 293 293 293 292 292 291 291 291 291 291 291 291 291 291 290 290 290 289 289 289 289 289 288 288 288 288 288 288 288 288 288 287 287 287 287 287 286 285 285 284 284 284 284 284 284 284 284 283 283 283 283 283 283 283 282 282 282 282 281 281 281 281 281 280 280 279 279 280 280 280 278 278 279 278 277 276 277 277 277 277 277 277 277 278
294 293 293 292 292 291 291 291 291 291 291 291 291 291 290 290 289 289 289 289 289 289 288 288 288 288 288 288 288 288 288 288 288 287 287 287 286 286 285 284 284 284 284 283 283 283 283 283 283 283 283 283 283 282 282 282 282 281 281 281 281 281 280 280 280 279 279 279 279 279 279 277 276 277 277 276 275 276 276 276 277 277 276 276 276
294 293 293 292 292 291 290 290 290 290 290 291 291 291 290 289 289 289 288 288 288 288 288 288 288 288 288 288 288 288 288 288 288 287 287 286 286 285 285 284 284 283 283 283 283 283 283 283 283 283 283 282 282 282 282 281 281 281 281 280 280 280 280 279 279 279 278 278 278 277 277 276 275 275 275 275 275 275 276 276 276 276 276 276 276
294 294 293 292 292 291 290 290 290 290 290 291 291 290 290 289 289 288 288 288 288 288 288 288 288 288 288 288 288 288 288 288 287 287 286 286 286 285 284 284 283 283 283 283 283 283 283 283 283 283 282 282 282 281 281 281 280 280 280 279 279 279 279 278 278 277 277 276 276 275 275 274 274 274 274 274 274 275 275 275 275 275 275 275 276
295 294 294 293 292 290 290 290 290 290 290 291 291 290 289 289 289 288 288 288 288 288 288 288 288 288 288 288 288 287 287 287 287 287 286 286 285 285 284 283 283 283 283 283 283 283 283 283 283 282 282 282 281 281 281 280 280 279 279 279 278 277 277 276 276 276 275 275 274 274 273 273 274 274 274 274 274 274 275 275 275 276 276 276 276
296 295 294 293 292 290 289 289 290 290 290 291 290 290 289 289 288 288 288 288 288 288 288 288 288 288 288 287 287 287 287 287 287 286 286 285 285 284 284 283 283 283 283 283 283 283 283 282 282 282 282 282 281 281 280 280 279 279 279 278 277 276 275 275 275 274 274 274 273 273 273 274 274 275 275 275 275 275 275 276 276 276 276 276 277
296 295 294 293 292 291 289 289 290 290 290 290 290 290 289 289 288 288 288 288 288 288 288 288 288 288 287 287 287 286 286 286 286 286 285 285 285 284 284 283 283 283 282 283 282 282 282 282 282 282 282 281 281 280 280 280 279 279 279 278 277 276 275 274 274 274 274 274 274 274 274 274 275 275 275 275 276 276 276 276 276 276 276 276 277
296 295 294 293 293 291 290 289 290 290 290 290 290 290 289 289 288 288 288 288 288 288 288 288 288 288 287 287 286 286 286 286 286 286 285 285 284 284 283 283 282 282 282 282 282 282 282 282 282 282 281 281 280 280 279 279 279 279 279 278 278 277 276 274 274 274 274 274 274 275 275 275 275 276 276 276 276 276 276 276 276 277 277 277 277
296 295 295 294 293 292 290 289 289 290 290 290 290 290 289 289 288 288 288 288 288 288 288 288 288 288 287 287 286 286 286 285 286 286 285 285 284 284 283 283 282 282 282 282 282 282 282 282 282 282 281 281 280 279 279 279 279 279 278 277 277 276 275 274 274 274 274 275 275 275 276 276 276 276 277 277 277 277 277 277 277 277 277 277 277
297 296 295 294 293 291 290 289 289 290 290 290 290 290 289 289 288 288 288 288 288 288 288 288 288 288 287 287 286 286 285 285 285 285 285 285 284 284 283 282 282 282 282 282 282 282 282 282 282 281 281 280 280 279 279 279 278 277 276 275 275 275 274 274 274 275 275 276 276 276 276 276 277 277 277 277 277 277 277 277 278 277 277 277 277
297 297 295 294 293 292 290 289 289 289 290 290 290 290 289 289 288 288 288 288 288 288 288 288 288 288 287 287 286 286 285 285 285 285 285 285 284 284 283 282 282 282 282 282 282 282 282 282 281 281 281 280 279 279 279 278 277 276 275 275 275 274 274 274 275 275 276 276 276 276 276 277 277 277 277 277 278 277 277 277 277 277 276 276 276
297 297 296 295 294 293 291 289 289 289 290 290 290 290 289 289 288 288 288 288 288 288 288 288 288 287 287 287 286 286 285 285 285 285 285 285 284 283 282 282 282 282 282 282 282 282 282 281 281 281 280 280 279 278 277 276 275 275 275 274 274 274 274 274 275 275 275 275 275 275 275 276 276 276 276 276 277 276 276 276 275 275 275 275 275
298 297 296 295 294 293 292 290 289 289 289 290 290 290 290 289 288 288 288 288 288 288 288 288 288 287 287 287 286 286 285 285 285 285 285 285 284 283 282 282 281 282 282 282 282 281 281 281 280 280 280 279 278 277 275 275 275 274 274 274 273 274 274 274 274 275 274 274 275 275 275 275 275 275 275 275 276 275 275 275 274 274 274 275 275
298 297 296 296 294 293 292 291 289 288 289 289 290 290 290 289 288 288 288 288 288 288 288 288 287 287 287 287 286 286 285 285 285 285 285 285 284 283 282 281 281 281 281 281 281 281 281 280 280 279 279 278 277 275 274 274 274 273 273 273 273 274 274 274 274 274 274 274 274 274 275 275 275 275 275 275 275 275 275 274 274 274 274 274 275
297 297 296 295 294 293 293 291 289 288 288 289 289 290 290 289 288 288 288 288 288 288 288 287 287 287 287 287 286 286 286 285 285 285 284 284 284 283 282 281 281 281 281 281 281 281 281 280 279 279 278 277 276 275 275 274 274 273 273 273 273 274 274 273 273 273 274 274 274 275 275 275 275 275 275 275 275 275 274 274 273 273 273 274 274
296 296 296 295 295 294 293 292 290 289 288 288 289 289 289 289 288 288 288 288 288 288 288 287 287 287 287 286 286 286 286 285 285 284 284 284 284 283 282 281 281 281 281 281 281 281 280 279 279 279 278 277 276 275 275 274 274 274 274 274 274 273 273 273 274 274 274 274 274 274 275 275 274 275 274 274 274 274 274 274 274 273 273 272 273
296 296 296 296 296 295 294 293 291 290 288 288 288 288 288 289 289 288 288 288 287 287 287 287 287 287 286 286 286 286 286 285 285 284 284 284 284 283 282 281 281 281 281 281 280 280 279 279 279 278 277 276 276 275 274 274 274 274 274 274 273 273 273 273 274 274 274 274 274 274 274 274 274 274 274 274 274 273 273 273 273 273 273 272 272
295 296 296 296 296 295 294 293 292 291 289 288 288 288 288 289 289 288 288 288 287 287 287 287 287 287 287 286 286 286 286 285 285 285 284 284 284 283 282 281 280 280 280 280 280 279 279 279 278 278 277 276 275 275 274 274 274 274 274 274 273 273 273 273 273 274 274 274 274 274 274 274 274 274 273 273 273 273 272 272 273 273 273 273 272
294 294 294 294 294 294 293 292 291 290 289 288 287 287 287 288 289 289 288 288 288 287 287 287 287 287 287 286 286 286 286 285 285 285 285 284 284 283 281 280 280 280 280 280 279 279 278 278 278 277 276 275 275 274 274 274 274 274 274 273 273 273 273 273 273 274 274 274 274 274 274 274 273 273 273 272 272 272 272 272 273 273 272 272 272
292 293 293 293 293 292 292 291 290 289 289 288 287 287 287 288 289 289 288 288 288 287 287 287 287 287 287 287 286 286 286 285 285 285 284 284 283 283 281 280 279 279 279 279 278 278 278 277 277 276 276 275 275 275 274 274 274 274 273 273 273 273 273 273 273 274 274 274 274 273 273 273 273 272 272 272 272 272 272 272 273 272 272 271 271
291 292 292 292 292 292 291 291 290 290 289 289 288 288 287 288 289 289 289 288 288 287 287 287 286 286 286 286 286 286 285 285 285 285 284 283 283 282 281 280 279 279 279 278 278 277 277 277 276 276 275 275 275 274 274 274 274 273 273 273 273 273 273 273 273 273 273 273 273 273 273 273 273 273 272 272 272 272 271 271 272 272 272 271 271
291 291 291 291 291 291 291 291 291 290 290 290 289 289 289 289 289 289 289 288 288 288 287 287 286 286 286 286 285 285 285 285 285 285 284 283 282 281 281 280 279 279 278 278 277 277 277 277 277 276 275 275 274 274 273 273 273 273 273 273 273 273 273 273 273 273 273 273 273 273 273 273 273 273 273 272 272 271 270 270 270 271 271 271 271
291 291 291 291 291 291 291 291 291 291 290 290 290 290 290 290 289 289 289 289 288 287 287 286 286 286 285 285 285 285 285 285 285 284 283 282 282 281 280 280 279 279 278 277 277 276 276 276 276 275 275 274 274 273 273 273 273 273 273 273 273 272 272 272 272 272 272 272 272 273 273 273 273 273 273 273 272 271 271 270 270 270 271 270 270
291 291 291 291 291 291 291 291 291 291 290 290 290 290 290 290 289 289 289 288 287 286 286 285 285 285 285 284 284 285 285 285 284 283 283 282 281 280 280 279 279 279 278 277 275 275 275 275 275 275 274 274 274 273 273 273 273 273 273 272 272 272 272 272 272 272 271 271 272 272 273 273 273 273 273 273 272 271 271 270 269 270 270 270 269
291 291 291 291 291 291 291 291 291 291 290 290 290 290 290 289 289 288 288 287 286 285 285 285 285 284 284 284 284 284 284 284 284 283 282 281 280 280 279 279 278 278 276 275 274 274 274 274 274 274 274 273 273 273 273 273 273 273 272 272 272 272 272 272 271 271 271 271 271 271 272 273 273 272 272 271 272 272 271 270 269 269 269 269 269
291 291 291 291 291 291 291 290 290 290 290 290 290 289 289 289 288 287 287 286 285 284 284 284 284 283 283 283 284 284 284 284 283 282 281 280 280 279 279 278 277 276 275 273 273 274 274 274 274 273 273 273 273 273 273 273 272 272 272 272 272 271 272 272 271 271 271 271 271 271 271 272 272 272 271 271 271 272 271 271 270 269 269 268 268
291 290 290 290 290 290 290 290 290 290 290 289 289 289 288 288 287 287 286 285 284 283 283 283 283 283 283 283 283 283 283 283 282 281 280 279 279 278 277 276 276 275 274 273 273 274 273 273 273 273 273 273 272 272 272 272 272 272 272 272 271 271 271 271 271 271 271 271 271 271 271 271 271 271 271 271 271 271 271 271 270 270 269 269 268
290 290 290 290 290 290 290 290 290 289 289 289 289 288 287 287 286 286 285 284 283 283 282 282 282 282 282 282 283 283 282 282 281 280 279 278 277 277 276 276 275 274 273 273 274 273 273 273 273 273 272 272 272 272 272 272 271 271 271 271 271 271 271 271 271 271 271 271 271 271 270 270 270 271 271 271 271 271 271 271 270 270 269 269 268
290 290 290 290 290 290 290 290 289 289 289 288 288 287 287 286 285 284 284 283 282 282 282 281 281 281 281 281 281 281 281 280 279 278 277 276 276 275 275 275 274 273 273 273 274 273 273 273 273 272 272 272 272 272 272 271 271 271 271 271 271 271 271 271 271 271 271 271 271 271 271 270 270 270 271 271 271 271 271 271 270 269 269 268 268
290 290 290 290 290 290 290 289 289 289 288 288 287 287 286 285 284 283 283 282 282 281 281 281 281 281 281 281 281 280 280 279 278 277 276 275 275 274 274 274 274 273 273 273 273 273 273 272 272 272 272 272 271 271 271 271 271 271 271 271 271 271 271 271 270 271 271 271 271 271 271 270 270 270 270 270 270 270 271 271 270 269 269 268 268
290 290 290 290 289 289 289 289 289 288 288 287 287 286 285 285 284 283 282 281 281 280 280 280 280 280 280 280 280 280 279 277 276 276 275 275 274 273 273 273 273 273 273 273 273 272 272 272 272 271 271 271 271 271 270 270 270 270 270 270 270 271 271 270 270 270 271 271 271 271 271 270 270 269 269 270 270 270 270 270 270 270 269 269 268
290 290 289 289 289 289 289 289 288 288 287 287 286 286 285 284 283 282 281 280 280 280 280 280 280 280 280 279 279 279 278 277 275 275 274 274 273 273 273 273 273 273 273 273 272 272 272 272 271 271 271 271 271 270 270 270 270 270 270 270 270 270 270 270 270 270 270 270 270 270 270 270 270 269 269 269 270 270 270 270 270 270 270 270 269
290 289 289 289 289 289 288 288 288 287 287 286 285 285 284 283 282 281 280 279 279 279 280 280 280 280 279 278 278 277 276 275 275 274 274 273 273 273 273 272 272 272 272 272 271 271 271 271 271 271 270 270 270 270 270 270 270 270 270 270 270 270 270 270 270 270 270 270 270 270 270 270 270 269 269 269 269 269 269 269 269 270 270 270 270
289 289 289 288 288 288 287 287 287 286 285 285 284 283 282 281 280 280 279 279 279 280 280 280 280 279 278 277 276 276 275 274 274 273 273 273 272 272 272 272 272 271 271 271 270 270 271 271 270 270 270 270 270 269 269 269 269 269 270 270 270 270 270 270 270 270 270 270 270 270 270 270 269 269 269 269 268 268 268 269 269 269 269 270 270
288 288 288 287 287 287 286 286 285 285 284 283 282 281 281 280 279 279 279 279 279 279 279 279 279 278 276 275 274 274 274 273 273 273 272 272 272 271 271 271 271 270 270 270 270 270 270 270 270 269 269 269 269 269 269 269 269 269 269 269 270 270 270 270 270 270 270 270 270 270 270 269 269 269 268 268 268 268 268 268 268 269 269 269 269
287 287 287 286 286 285 285 284 284 283 282 282 281 280 279 279 279 279 279 279 279 279 278 278 277 276 275 274 273 273 273 273 272 272 272 271 271 270 270 270 270 269 269 269 269 269 270 270 269 269 269 269 269 269 269 269 269 269 269 269 269 270 270 270 269 269 269 269 269 269 269 268 268 268 268 268 268 268 268 268 268 268 269 269 269
286 286 285 285 285 284 283 283 282 282 281 280 279 279 279 278 278 278 278 278 278 277 277 276 275 274 273 273 272 271 271 271 271 271 271 270 269 269 269 268 269 269 269 268 268 269 269 269 268 268 268 269 269 269 269 269 269 269 269 269 269 269 269 269 269 269 268 268 268 268 268 268 267 268 268 267 267 267 268 268 268 268 268 269 269
285 284 284 284 283 283 282 281 281 280 279 279 278 278 278 278 278 278 277 277 276 275 275 274 273 273 272 271 271 270 270 270 269 269 269 268 268 268 268 268 268 268 268 268 268 268 268 268 268 268 268 268 268 269 269 269 269 269 269 269 269 269 269 269 268 268 267 267 267 267 267 267 267 267 267 267 267 267 267 268 268 268 268 268 269
283 283 283 282 282 281 281 280 279 279 278 278 278 278 278 278 277 276 276 275 274 274 273 273 272 272 271 271 270 270 269 269 268 268 267 267 267 267 267 267 268 268 268 268 268 268 268 268 268 268 268 268 268 268 268 268 269 269 269 269 268 268 268 268 267 267 267 267 267 267 267 267 267 267 267 267 266 267 267 267 267 267 268 268 268
282 281 281 281 281 280 280 279 279 278 278 278 278 277 277 276 275 275 274 274 273 273 273 272 272 271 271 270 269 269 268 268 267 267 266 266 266 266 267 267 267 267 268 268 268 268 268 268 268 268 268 268 268 268 268 268 268 268 268 267 267 267 267 267 266 266 266 267 267 267 267 266 266 266 266 266 266 266 267 267 267 267 267 267 268
280 280 280 279 279 279 279 279 278 278 277 277 276 275 275 274 274 273 273 273 273 272 272 271 270 270 269 269 268 268 267 267 267 266 266 266 266 266 266 267 267 267 267 267 267 268 268 268 268 268 268 268 268 268 268 267 267 267 267 267 267 267 267 266 266 266 266 266 266 266 266 266 266 266 266 266 266 266 266 266 266 266 267 267 267
279 279 278 278 278 278 278 277 277 276 276 275 275 274 274 273 273 273 272 272 272 271 271 270 269 269 268 268 267 267 267 266 266 266 266 266 266 266 266 266 266 266 267 267 267 267 267 267 267 267 267 267 267 267 267 267 267 267 267 267 267 266 266 266 266 266 266 266 266 266 266 266 266 266 266 265 265 266 266 266 266 266 266 267 267
278 278 277 277 277 277 276 276 275 275 274 274 274 273 273 273 272 272 271 271 270 270 269 269 269 268 268 268 267 267 267 267 267 267 267 266 266 266 266 266 266 266 266 266 266 266 266 266 266 266 266 266 266 266 267 266 266 266 266 266 266 266 266 266 266 266 266 266 266 266 266 266 265 265 265 265 265 266 266 266 266 266 266 266 267
277 276 276 275 275 275 274 274 274 273 273 273 273 273 272 272 271 271 270 270 270 269 269 269 268 268 268 268 267 267 267 267 267 267 267 266 266 266 266 266 266 266 266 266 266 266 266 266 266 266 266 266 266 266 266 267 267 267 267 267 267 267 267 267 267 266 266 266 266 266 266 266 265 265 265 265 265 265 265 265 265 266 266 266 266
275 274 274 274 274 273 273 273 273 272 272 272 272 271 271 270 270 270 269 269 269 269 269 269 268 268 268 268 267 267 267 267 267 266 266 266 266 266 266 266 266 266 266 266 266 266 266 266 266 266 266 266 267 267 267 267 267 267 267 267 267 267 267 267 267 266 266 266 266 266 266 266 265 265 265 265 265 265 265 265 265 266 266 266 266
273 273 273 272 272 272 272 272 271 271 271 271 270 270 270 269 269 269 269 269 269 269 268 268 268 268 268 267 267 267 267 267 267 267 266 266 266 266 266 266 266 266 266 266 266 266 266 267 267 267 267 267 267 267 267 267 267 267 267 267 267 267 267 267 267 266 266 266 266 265 265 265 265 265 265 265 265 265 265 265 265 265 265 266 266
Wind_Speed
24 23 23 22 20 19 18 17 16 15 13 11 9 8 7 7 6 4 3 4 4 6 8 10 12 13 14 15 15 15 16 17 18 18 19 19 19 19 19 19 19 19 19 20 20 20 21 22 22 23 24 25 25 26 27 28 29 30 30 31 31 30 29 28 30 39 45 44 46 46 44 47 47 45 46 48 46 45 46 45 44 43 43 42 41
25 24 23 22 21 20 19 18 17 16 14 12 10 9 9 8 7 6 5 4 5 6 8 10 12 13 14 14 15 15 17 18 19 20 20 20 21 20 20 20 19 20 20 20 20 21 22 22 22 23 24 24 25 26 28 29 30 31 31 31 33 32 31 31 32 37 44 47 47 48 46 46 48 47 46 47 46 44 44 43 42 42 41 39 38
25 24 23 23 22 21 21 19 18 16 14 13 12 11 11 10 8 6 5 5 5 7 9 10 12 13 14 14 15 17 18 19 20 20 21 21 21 21 20 20 20 20 20 20 21 21 21 22 22 23 23 24 25 27 28 30 30 32 33 32 34 34 33 33 33 36 42 47 48 49 47 45 47 48 46 45 43 41 42 41 39 39 39 37 35
26 25 24 24 23 23 22 20 19 17 15 14 14 13 12 11 9 7 6 6 6 7 9 11 12 13 14 15 16 17 18 19 20 20 21 21 21 21 20 20 20 20 20 20 21 21 21 22 22 22 24 25 26 28 29 31 32 32 33 34 34 35 35 34 34 35 39 45 48 48 46 45 46 47 45 44 41 39 39 39 38 37 37 35 34
27 26 26 25 25 24 23 21 20 18 17 16 15 14 13 11 9 7 6 6 7 8 9 11 12 14 15 16 17 18 18 19 19 20 21 21 21 21 20 20 19 19 20 20 21 21 21 22 22 23 24 26 27 29 30 31 33 33 34 35 34 35 36 35 35 35 37 42 46 48 46 44 45 46 44 42 40 39 39 38 37 36 36 35 34
28 28 27 26 26 25 24 23 21 20 18 17 16 15 14 12 9 7 6 7 8 9 10 11 13 14 15 16 17 18 18 19 19 20 20 21 20 20 20 19 19 19 20 20 21 21 22 22 23 23 25 27 28 30 31 32 33 33 34 34 35 35 36 36 37 37 37 40 43 46 46 43 43 45 43 39 38 39 40 39 38 36 36 36 36
30 29 28 28 27 26 25 24 22 21 20 19 17 16 14 11 9 7 7 7 8 9 11 12 13 14 15 16 17 18 18 19 19 20 20 20 20 20 20 20 20 20 20 21 21 22 22 22 23 24 25 27 29 30 31 32 33 33 33 34 35 36 37 37 37 37 38 39 41 43 45 43 40 42 43 39 36 36 37 38 40 39 36 36 36
31 30 30 29 28 27 26 25 24 22 21 19 18 16 14 12 9 8 8 8 9 10 11 12 13 14 15 16 17 18 19 19 19 19 19 20 20 20 20 20 20 20 20 21 21 22 23 23 23 24 26 27 29 30 31 32 32 33 33 34 35 35 36 37 37 37 37 38 40 41 41 41 38 39 41 38 36 36 36 35 38 40 38 37 36
32 31 31 30 30 29 28 27 26 24 22 21 19 17 15 12 10 9 9 9 9 10 11 12 13 14 15 17 18 19 19 19 19 19 19 20 20 20 20 20 21 21 21 21 22 22 23 23 24 25 26 28 29 30 31 31 31 33 33 33 34 34 35 35 36 36 36 37 38 38 38 39 37 36 37 34 33 36 36 35 37 38 38 39 39
33 33 32 32 31 30 30 30 28 26 23 21 20 18 15 13 11 10 10 10 10 10 11 12 13 15 16 18 19 19 19 19 19 19 20 20 21 21 21 21 21 22 22 22 22 23 23 24 24 25 27 28 30 30 30 30 30 31 32 31 31 31 32 33 34 34 34 34 35 34 35 39 38 35 35 34 34 35 37 38 39 40 39 41 42
34 34 33 32 32 32 32 31 29 26 24 22 21 19 16 14 12 12 11 10 10 10 11 12 13 15 17 18 19 19 19 19 19 19 20 20 22 22 22 22 22 22 23 23 23 23 24 24 25 26 27 29 30 31 31 30 30 30 30 29 28 27 27 30 31 31 31 32 34 35 36 40 41 37 37 39 38 37 39 41 41 41 41 42 45
35 35 34 34 34 34 34 32 29 27 25 23 22 19 17 15 14 13 12 11 10 10 11 12 13 15 16 18 19 19 20 20 20 20 20 20 22 23 23 24 24 24 24 24 24 24 25 26 26 27 29 30 31 32 31 31 31 30 30 28 27 27 27 28 28 28 29 32 36 38 39 41 42 40 38 40 41 40 41 43 43 43 44 44 46
36 36 35 35 35 36 36 33 31 29 27 24 22 21 19 17 16 15 14 12 11 11 11 12 13 15 17 18 19 20 20 20 20 20 20 21 22 24 24 24 25 25 25 25 25 25 26 27 28 28 30 31 31 31 31 31 31 30 29 29 30 30 31 30 27 27 29 33 37 40 40 40 42 42 40 40 41 43 44 44 44 45 46 45 46
37 36 35 36 37 38 37 34 32 31 28 25 24 23 21 18 17 17 15 14 13 12 12 12 14 16 17 18 19 19 20 20 20 20 21 21 22 24 25 25 25 26 26 26 26 27 27 28 29 30 31 31 31 31 31 31 31 31 31 32 33 34 35 34 33 31 32 34 37 40 40 39 41 42 41 40 42 44 44 44 43 42 42 41 41
37 36 36 37 39 39 37 34 33 32 29 27 26 24 22 21 19 18 17 15 14 13 13 13 14 16 17 18 19 19 20 20 20 21 21 22 23 25 25 26 26 26 26 26 27 27 28 29 30 31 32 32 31 30 30 30 30 31 32 33 34 35 37 37 36 36 35 35 36 39 41 40 41 42 41 40 41 41 40 39 38 37 40 42 42
36 36 38 39 40 40 37 35 34 34 31 29 28 26 24 23 21 20 19 17 16 15 15 15 15 16 17 18 19 19 19 21 21 21 22 23 24 25 26 26 27 27 27 27 28 28 29 30 31 32 33 32 31 29 27 27 28 30 31 33 35 36 38 37 33 31 32 32 34 36 38 38 39 39 39 39 39 38 38 39 39 40 44 46 45
36 37 39 40 40 39 37 36 36 36 33 31 29 27 26 24 23 22 21 20 18 17 17 16 16 17 17 18 19 19 19 21 22 22 23 24 25 26 26 27 27 27 27 28 29 29 30 30 31 32 33 32 30 28 24 22 24 28 31 34 36 37 38 37 35 34 33 34 35 36 37 38 38 38 38 38 38 38 40 43 43 42 43 43 42
36 37 39 39 38 37 36 36 37 37 35 33 31 29 28 26 24 24 23 22 20 19 19 18 17 17 18 19 20 20 20 21 22 23 23 24 26 27 27 27 28 28 28 29 30 30 31 31 31 32 33 32 28 24 20 21 25 29 30 33 36 37 38 38 38 38 38 37 38 38 38 38 38 37 36 35 33 32 33 36 36 35 36 38 39
35 37 37 36 35 34 34 36 38 38 36 34 32 30 29 27 26 26 25 24 23 22 21 20 18 17 18 19 20 21 21 21 22 23 24 24 26 27 28 28 28 29 29 30 31 31 31 31 31 31 32 28 23 20 21 22 25 27 29 32 35 37 37 36 37 38 39 39 39 38 38 36 35 35 34 32 30 28 28 30 29 29 32 34 35
32 33 33 32 33 33 34 35 37 37 36 35 33 32 30 29 28 28 27 27 25 25 23 21 20 18 18 20 21 21 22 22 22 23 24 25 26 27 28 28 28 29 30 31 31 32 31 31 31 31 29 25 22 23 24 23 23 26 29 31 33 34 33 34 35 36 37 38 37 36 36 34 33 32 31 30 28 27 27 27 26 26 28 31 32
27 27 29 30 31 32 32 34 35 35 35 36 35 34 32 31 31 30 30 29 28 27 25 23 22 20 20 20 21 22 23 23 23 23 24 25 26 27 28 28 28 29 30 31 32 32 31 31 32 31 28 25 24 25 24 23 23 26 28 28 29 29 30 32 34 34 35 35 35 34 33 32 31 30 30 29 28 26 25 26 25 25 26 27 29
22 24 27 28 29 29 31 32 33 34 35 36 38 37 35 34 34 33 32 32 31 29 28 26 24 23 22 22 22 22 23 24 23 23 24 25 26 27 28 28 28 29 30 31 32 31 30 31 32 31 28 25 25 25 24 24 24 25 26 26 26 27 29 31 32 32 32 32 32 31 31 31 30 30 29 29 28 27 27 26 25 25 25 26 27
21 23 25 27 27 28 29 30 31 33 35 37 39 39 37 36 36 36 35 34 33 32 30 28 27 26 25 24 23 23 24 24 24 24 24 25 27 28 28 28 27 28 30 31 31 30 30 30 31 30 28 25 25 24 24 24 24 24 24 24 25 26 27 28 28 29 29 29 29 29 29 29 30 30 29 29 29 28 28 27 26 25 25 25 25
20 22 24 25 26 27 28 29 30 32 34 36 38 40 40 39 38 38 37 36 35 35 33 31 30 28 28 27 26 25 25 25 25 24 24 26 27 28 28 28 27 27 29 30 30 29 29 29 29 28 27 25 24 24 23 23 22 22 22 22 23 24 25 25 26 27 27 27 28 28 29 29 30 30 29 29 29 28 27 26 25 24 24 24 24
20 22 23 24 25 26 27 28 30 31 33 35 37 39 40 40 40 40 39 38 38 38 36 34 32 31 30 29 28 27 26 26 26 25 24 25 27 28 28 28 27 27 28 29 29 28 27 27 27 27 26 24 23 23 23 22 21 20 20 21 22 22 23 24 24 25 26 26 27 28 29 29 28 28 27 27 27 27 26 26 25 25 25 25 25
22 22 23 24 25 26 27 28 29 31 32 34 36 38 40 41 41 41 42 41 40 40 39 37 35 33 32 31 30 29 28 28 28 26 25 25 26 27 28 28 27 27 27 28 27 26 25 26 26 25 24 23 23 23 22 22 20 19 19 20 20 21 21 22 23 24 25 26 27 28 28 27 26 25 25 26 26 26 27 27 27 26 26 27 27
22 23 24 25 26 27 28 29 30 31 32 34 35 37 39 40 42 43 43 43 43 43 41 39 37 36 34 32 30 29 29 30 29 28 26 26 26 27 28 28 28 27 27 27 27 27 27 27 24 22 22 23 22 21 21 21 19 18 18 18 19 19 20 21 22 23 24 24 26 27 27 26 25 24 25 26 26 26 27 27 28 27 27 27 28
22 24 25 27 28 29 30 31 32 32 33 34 35 37 39 40 41 42 43 44 45 43 41 39 38 37 35 33 31 31 30 30 30 28 27 27 26 27 28 28 28 27 27 27 27 28 29 28 24 21 21 23 22 20 20 19 18 18 18 17 17 18 18 19 20 21 22 23 24 26 26 25 24 24 25 26 27 27 27 28 28 29 28 28 29
25 27 28 29 30 31 32 34 34 35 35 36 37 38 39 40 41 42 43 44 43 41 39 38 38 37 35 34 32 32 31 31 30 29 29 28 27 27 28 28 28 29 27 25 25 27 29 29 27 23 22 23 22 21 20 19 17 17 17 17 17 17 17 18 19 20 22 23 24 25 25 25 25 25 26 27 27 28 29 29 30 30 29 29 30
29 30 31 32 33 34 35 35 36 37 38 39 40 40 41 41 41 42 42 42 41 40 39 39 38 36 35 34 32 32 32 32 31 30 29 28 27 28 28 27 27 28 25 21 22 27 30 31 29 25 23 23 23 21 20 19 18 17 16 17 17 16 16 17 19 20 22 23 23 24 25 25 26 26 27 28 29 29 29 30 30 30 30 31 31
29 31 32 33 35 35 36 37 37 38 39 40 40 40 41 41 41 41 41 40 40 39 39 38 38 36 35 33 32 32 32 32 32 31 29 27 28 28 28 26 26 26 23 22 26 30 31 31 29 25 23 23 23 22 20 20 18 17 17 17 16 16 16 17 18 20 21 22 23 24 24 25 25 25 26 28 29 30 30 30 30 31 31 31 32
30 31 31 33 34 35 37 37 37 38 38 38 39 39 39 39 39 38 38 38 38 38 37 37 37 36 34 33 33 33 32 32 32 31 28 27 27 27 26 26 27 25 23 26 30 31 30 29 28 25 23 23 23 22 21 20 18 18 18 18 17 16 16 17 18 19 21 22 23 24 24 24 24 24 25 27 29 30 31 31 31 31 32 32 32
32 32 33 33 33 34 35 35 36 36 36 36 36 36 36 36 36 35 35 35 36 37 36 36 35 34 33 33 33 33 33 32 32 31 29 28 27 26 25 26 27 25 25 29 33 32 30 29 27 25 24 24 23 22 21 20 19 19 19 19 18 17 17 17 18 19 20 22 23 24 24 24 24 24 25 26 27 29 30 31 31 32 32 33 34
32 33 33 33 33 32 32 33 33 34 34 35 35 34 34 33 32 32 32 34 35 35 35 34 33 32 32 31 31 32 32 31 30 29 28 29 29 27 27 27 27 26 27 32 34 32 30 28 27 26 25 24 23 22 21 20 20 19 19 19 19 18 18 18 18 19 20 21 22 23 24 24 24 24 25 25 26 28 29 30 31 32 33 33 34
33 33 33 33 33 32 32 32 33 33 33 33 33 33 32 31 30 31 31 33 33 34 33 32 31 30 31 31 31 31 31 30 29 28 28 29 29 28 28 29 29 29 31 34 34 31 28 27 26 26 25 24 23 23 21 20 20 20 20 20 19 19 19 19 19 20 21 21 22 23 23 24 24 25 25 25 25 26 28 29 30 31 32 32 32
33 33 33 33 33 33 33 33 33 33 32 32 31 31 30 30 30 30 30 31 32 32 32 32 31 30 30 31 31 32 31 30 29 28 29 29 29 28 29 31 32 32 33 34 34 31 28 26 26 26 25 24 23 23 22 22 21 21 20 20 20 20 20 20 20 21 21 22 22 23 23 24 24 24 25 25 24 25 26 28 29 30 30 31 31
33 33 33 33 33 33 33 33 33 32 31 30 30 30 30 30 30 29 29 30 31 31 31 31 31 31 31 30 30 31 31 30 29 29 29 29 29 29 31 33 33 34 34 33 32 30 27 26 26 26 25 24 23 23 23 22 22 21 21 21 21 21 21 21 21 22 22 22 23 23 23 24 24 24 25 25 24 24 25 26 28 29 29 29 30
33 33 32 32 32 32 32 32 32 31 30 30 29 29 29 28 28 28 28 29 29 30 30 31 31 32 31 29 29 29 29 29 30 31 31 30 30 31 32 33 33 34 34 32 30 28 27 27 27 26 25 24 23 23 24 23 22 22 22 21 21 21 21 21 22 22 22 23 23 23 24 24 24 24 25 25 24 24 24 25 26 28 29 29 30
31 31 31 31 31 31 31 30 30 29 29 28 28 27 27 27 27 27 27 27 28 29 30 31 32 31 29 27 27 28 29 29 30 31 31 32 31 31 32 33 33 33 33 30 27 27 28 28 27 26 25 24 23 24 24 23 23 22 22 22 22 21 21 21 22 22 23 23 23 24 24 25 24 24 24 24 24 23 24 24 25 26 28 29 29
29 29 29 28 28 28 28 28 28 27 27 26 26 25 25 25 25 25 26 27 28 29 30 31 31 30 28 27 26 27 29 30 31 31 32 32 32 32 32 32 32 32 31 28 26 26 27 27 26 25 25 24 24 24 24 24 24 23 23 23 23 23 22 22 22 23 23 24 24 24 24 25 25 24 24 24 23 22 22 23 24 25 26 27 28
27 26 26 26 25 25 25 25 25 25 24 24 23 23 22 23 24 25 26 27 28 29 29 30 29 27 27 26 26 27 30 32 33 32 32 32 31 31 31 30 30 29 28 27 26 26 27 27 26 24 24 24 24 24 24 24 24 24 24 24 24 24 24 23 23 23 24 24 24 25 24 24 25 24 23 23 23 22 22 22 22 23 24 25 26
25 24 23 23 23 23 22 22 22 21 21 20 20 21 22 23 24 25 26 27 27 27 27 28 27 26 26 26 27 27 30 32 34 34 33 30 29 28 28 27 27 26 26 26 25 25 26 26 25 24 24 25 24 24 24 24 24 24 25 25 25 25 26 25 24 24 24 24 24 25 24 24 24 24 23 22 22 22 22 21 21 22 23 24 25
22 21 20 20 20 20 20 19 19 18 19 19 20 21 22 23 24 24 25 25 25 26 26 27 27 27 27 27 27 27 28 29 30 32 31 29 27 25 24 24 24 24 25 25 24 25 26 26 26 25 25 25 24 24 24 24 24 25 25 26 26 26 26 25 24 23 24 24 24 24 24 23 23 24 23 22 21 21 21 21 21 21 22 23 24
19 18 18 18 18 18 18 18 18 18 19 20 21 22 22 23 23 23 23 24 24 25 25 26 26 26 26 25 25 25 26 26 26 27 28 27 25 23 22 22 23 23 23 23 23 24 25 26 26 25 25 24 24 24 24 24 24 25 25 26 26 26 25 24 23 23 23 24 24 24 24 23 23 23 22 21 21 20 20 20 20 21 22 22 23
17 17 17 17 18 18 18 18 19 19 20 20 20 21 21 21 22 22 23 24 24 24 24 24 24 23 23 22 21 21 22 22 22 23 24 24 23 22 21 21 21 21 21 21 22 23 24 24 25 25 24 23 23 23 24 24 24 24 25 25 26 26 24 23 22 22 22 23 23 23 23 23 22 22 22 20 19 19 19 19 19 21 21 22 22
17 17 17 17 18 18 19 19 19 19 20 20 20 20 21 21 21 22 22 22 22 21 21 20 18 18 17 16 17 17 18 18 19 20 20 21 21 20 20 20 20 20 20 20 21 22 22 23 23 23 23 22 22 23 23 23 23 24 24 24 25 24 23 22 22 22 22 22 23 23 23 23 22 21 20 19 18 18 17 17 18 19 20 20 20
17 17 17 17 17 18 18 19 19 19 20 20 20 20 20 20 20 19 19 19 18 17 15 14 13 12 13 13 14 15 16 16 17 18 19 19 19 19 19 19 19 20 20 20 21 21 22 22 22 22 22 22 22 22 22 22 22 23 23 23 23 22 22 21 21 21 21 22 22 22 22 22 22 20 19 18 17 17 16 16 17 18 19 19 19
17 17 16 16 16 17 18 18 18 19 19 19 19 18 18 18 17 16 15 15 13 12 11 10 10 11 11 12 13 14 14 15 16 17 18 18 18 18 19 20 20 20 20 20 20 20 21 21 21 22 22 21 21 21 21 21 21 21 21 21 21 21 21 21 21 21 21 21 22 22 22 22 22 21 19 17 16 15 15 15 16 17 18 18 17
16 16 15 16 16 17 17 18 17 17 17 16 16 15 15 14 13 12 11 10 10 10 10 10 11 11 12 12 13 13 14 14 15 16 16 17 17 18 18 19 19 19 20 20 19 20 20 20 20 21 21 20 20 20 20 20 20 20 20 20 21 21 21 21 21 21 21 22 22 22 22 22 22 21 19 17 16 15 14 14 15 16 17 17 17
15 15 15 16 16 16 15 15 15 14 14 13 13 12 11 11 10 9 9 9 9 9 10 11 11 12 13 13 13 14 14 14 14 15 15 15 16 16 17 18 18 19 19 19 19 19 19 19 19 19 19 19 19 19 19 20 20 20 21 21 21 21 21 21 21 21 21 22 22 22 22 22 21 21 20 18 17 16 15 14 14 15 16 16 16
14 14 14 14 13 13 13 12 12 12 12 11 11 10 10 9 8 8 9 9 9 9 10 11 12 12 13 13 14 14 15 15 15 15 15 15 15 16 17 17 18 18 18 18 17 17 17 17 18 18 19 19 19 20 20 20 21 21 22 22 22 22 22 22 22 21 21 21 22 22 22 22 21 21 20 19 18 17 16 15 14 14 15 15 15
Wind_Direction
195 196 195 193 193 194 197 202 204 205 204 203 203 207 215 221 224 235 257 288 308 323 332 336 336 335 334 333 333 335 337 339 339 338 337 336 335 334 333 333 332 332 333 333 334 334 334 334 333 333 332 332 332 332 332 331 330 329 328 327 326 323 321 317 310 312 317 320 319 316 315 316 316 316 316 315 314 314 312 311 311 311 310 310 309
198 199 197 195 196 200 204 206 206 206 206 205 207 213 221 225 228 238 256 277 301 320 328 332 332 330 329 329 331 333 334 335 335 335 334 334 333 332 331 331 330 330 330 330 332 332 332 332 331 331 331 331 332 331 330 330 328 327 327 325 324 323 320 317 313 312 315 318 319 316 315 316 316 316 317 316 316 316 315 314 314 313 313 313 312
201 200 199 199 201 205 208 208 208 208 207 207 211 218 224 227 232 243 258 277 302 319 326 329 327 325 326 327 329 330 331 331 331 331 331 331 330 330 329 329 328 327 327 328 329 329 329 329 328 329 329 329 330 331 329 329 328 326 325 324 323 321 319 317 314 313 314 316 318 316 315 316 316 316 317 317 317 319 318 318 319 317 317 318 316
203 203 202 203 206 209 210 210 209 209 209 211 216 222 226 229 235 245 262 284 305 317 322 324 324 324 325 325 326 327 327 328 328 328 328 328 328 327 326 326 324 324 324 324 326 326 326 326 326 327 328 328 329 330 329 327 327 326 324 323 322 320 318 316 314 312 312 312 315 315 314 315 316 317 317 318 319 321 321 322 324 323 322 321 318
205 205 206 207 210 212 212 212 212 211 212 215 220 225 228 231 236 249 268 288 305 314 319 321 322 324 324 324 324 324 324 325 326 326 326 325 325 324 322 321 320 320 321 322 323 324 324 324 324 325 326 327 328 328 327 327 325 324 323 322 320 318 316 315 313 312 311 311 312 313 314 316 317 317 319 321 321 323 324 325 326 325 323 321 319
208 208 209 212 213 214 213 214 214 214 215 219 223 227 229 232 237 252 272 290 303 310 315 319 321 323 323 323 322 322 323 324 324 324 324 323 322 320 319 318 317 317 319 321 321 321 321 321 322 324 325 326 327 327 326 325 324 323 321 319 317 315 314 313 312 312 311 311 312 312 314 316 317 317 319 322 323 325 328 327 326 325 324 324 323
211 211 213 215 216 216 216 217 217 216 218 221 224 228 229 232 240 254 273 288 298 306 312 318 321 321 321 321 321 322 323 323 324 323 321 320 318 317 316 315 315 316 317 318 319 319 319 319 320 322 324 325 325 325 324 323 321 320 319 317 315 314 313 313 312 312 312 312 312 312 313 315 317 318 319 322 324 328 330 328 325 325 327 325 323
213 214 215 217 218 219 219 219 219 218 219 221 225 228 229 233 243 256 270 282 292 302 310 316 319 320 320 320 320 321 322 322 322 320 318 317 316 314 314 312 312 313 314 315 316 315 316 317 318 320 322 324 324 323 322 321 319 318 317 315 314 313 312 312 311 312 313 313 313 313 314 315 317 319 320 322 323 326 329 327 322 323 324 322 319
216 217 218 219 220 220 220 220 220 218 219 222 225 227 229 233 243 255 265 277 289 299 308 313 317 318 319 320 320 320 321 320 320 318 316 314 312 311 310 309 309 310 311 312 313 313 314 315 317 319 321 322 322 321 320 319 318 317 315 314 313 312 311 311 311 313 314 314 314 315 315 314 316 317 318 318 317 320 325 324 318 318 318 317 318
218 220 221 222 222 222 221 221 220 219 220 224 226 226 227 232 242 252 261 273 284 295 305 311 315 317 319 319 319 319 319 318 317 316 313 311 309 308 307 307 307 308 308 309 310 312 313 314 316 319 320 321 321 320 320 318 316 314 312 311 310 310 310 310 311 313 314 315 315 316 314 313 314 314 312 314 313 312 317 319 317 316 315 313 315
221 223 224 224 224 223 223 222 220 220 222 225 226 226 227 233 241 250 258 268 279 289 301 308 313 317 319 320 320 319 319 317 315 313 311 309 307 307 307 307 307 307 307 308 310 312 313 315 316 318 320 320 320 319 319 317 315 312 309 308 307 306 307 309 310 313 314 313 313 313 311 311 313 312 311 313 313 310 311 314 312 311 311 310 309
223 225 225 226 226 226 226 223 221 221 223 226 227 226 228 233 240 248 254 263 273 283 294 303 311 316 319 322 322 320 317 314 312 311 309 308 306 306 306 307 307 307 307 308 311 312 313 315 317 319 320 320 319 319 318 315 313 310 308 307 306 307 311 314 312 310 309 308 308 308 307 308 310 310 310 311 311 308 307 306 306 305 304 303 303
225 226 227 228 230 230 228 224 221 223 225 226 227 227 229 234 240 247 251 257 266 275 286 298 308 314 319 323 322 319 315 311 311 311 309 307 305 304 305 306 306 306 308 309 311 312 313 315 317 318 319 319 319 318 316 314 312 309 308 308 308 312 317 317 309 301 301 303 304 305 307 307 308 309 311 311 308 306 303 302 303 302 300 299 303
226 228 230 231 233 232 229 224 222 225 226 227 228 228 230 235 239 244 248 253 259 268 280 294 304 310 316 321 321 318 314 310 310 311 310 307 305 303 304 305 305 306 307 309 311 312 313 315 316 318 318 318 318 318 316 314 312 311 313 316 317 318 318 315 310 307 309 309 307 306 309 310 309 309 311 310 306 303 302 302 303 302 301 302 304
228 231 233 234 234 234 230 225 223 226 227 228 230 230 231 235 238 242 246 249 255 264 277 289 299 305 311 318 319 317 314 311 311 312 311 308 304 303 303 303 304 305 306 308 309 310 312 314 316 317 317 318 319 318 317 316 317 320 322 322 319 314 311 311 313 315 317 315 310 308 309 310 308 307 308 308 306 304 304 305 305 304 303 303 302
230 234 235 235 236 236 233 227 225 227 228 229 231 231 233 235 238 241 243 246 252 262 273 283 291 298 306 314 317 317 314 313 313 313 311 307 304 302 302 302 302 303 304 306 307 309 311 313 315 316 317 319 319 319 321 324 324 322 317 311 308 307 309 312 312 310 308 305 301 300 299 298 297 297 297 296 295 296 297 298 299 299 300 301 301
233 236 237 238 239 239 236 230 228 229 229 230 233 234 235 236 237 240 243 246 252 260 269 276 283 291 301 310 315 315 314 313 313 312 310 307 303 301 301 300 301 301 302 304 306 308 311 313 315 317 317 319 321 325 329 325 314 307 305 305 307 308 309 310 306 302 301 300 299 298 297 298 298 296 295 292 290 290 291 293 294 296 297 299 300
237 239 240 241 241 241 239 235 232 231 231 232 235 237 237 236 237 240 243 248 252 257 263 269 276 286 297 306 311 313 312 313 313 312 309 306 302 300 299 299 299 301 302 303 305 308 311 313 316 317 318 322 326 328 322 311 304 304 306 308 307 306 308 310 309 309 309 310 310 310 308 307 306 304 303 302 300 297 295 295 297 297 295 295 296
240 242 244 245 244 243 241 238 235 234 233 235 237 240 239 237 238 241 244 248 250 254 258 264 271 281 292 300 306 309 310 311 312 311 309 306 302 299 298 298 298 299 300 302 305 308 311 314 315 317 319 324 326 318 309 307 307 307 306 305 305 308 313 315 314 314 315 316 317 316 314 313 312 311 311 310 308 305 301 300 301 300 297 295 296
247 248 247 246 244 243 242 240 239 237 236 237 239 241 241 238 238 241 244 247 250 253 256 261 267 276 286 295 300 306 309 310 311 310 309 306 302 298 296 296 297 298 299 301 304 308 311 313 315 317 320 321 317 311 310 311 309 305 304 306 310 314 316 316 315 316 317 318 320 320 319 319 317 316 315 314 312 309 303 299 296 294 293 293 294
251 249 246 244 244 244 243 243 243 241 240 239 240 242 242 240 240 242 245 248 250 253 256 260 266 273 281 289 295 301 306 308 309 309 308 306 301 296 294 295 295 296 298 300 304 307 311 313 314 316 318 316 313 311 312 311 308 306 307 310 314 315 314 314 317 319 319 320 322 323 324 323 322 320 319 318 317 315 309 303 298 294 292 292 293
244 243 243 243 245 245 246 246 246 245 243 241 241 242 243 242 241 242 246 249 251 253 256 259 263 269 275 283 289 296 302 306 307 307 308 306 301 296 292 292 293 294 296 299 303 306 309 311 312 314 314 313 311 311 311 310 309 308 310 313 315 314 313 315 319 320 321 323 325 327 329 329 327 326 324 323 323 322 319 315 310 306 301 295 291
240 241 241 243 245 246 247 247 247 245 243 241 242 243 244 243 243 243 246 250 252 254 256 258 261 266 271 277 285 292 298 302 304 306 307 306 301 296 291 290 292 293 295 298 302 305 307 309 310 311 310 308 309 309 309 309 309 310 312 315 315 314 315 318 320 320 322 326 329 331 334 335 333 332 331 328 327 325 322 321 318 314 310 304 299
243 242 242 243 244 244 244 245 244 244 243 242 243 244 245 245 245 245 247 251 254 255 256 257 259 263 268 274 281 287 292 296 299 302 304 303 300 295 291 289 290 291 294 296 299 301 304 306 307 306 305 305 306 306 306 307 308 310 313 315 316 316 317 319 320 323 326 330 333 336 338 339 337 336 334 331 328 327 326 324 322 321 319 316 313
249 248 247 246 244 243 242 242 242 243 243 244 245 246 247 247 247 248 249 251 254 256 257 257 259 261 266 271 277 283 287 291 296 299 300 300 298 294 290 287 288 290 291 293 295 298 300 302 302 301 301 302 302 302 303 306 308 311 314 315 316 316 318 320 323 327 332 335 338 341 341 340 338 336 335 334 333 333 334 330 327 327 327 325 322
253 253 252 251 248 246 245 243 244 245 246 247 249 249 250 251 251 251 251 253 255 257 258 258 259 261 265 269 274 279 284 290 295 298 298 297 295 293 290 287 287 288 289 290 291 292 293 294 296 297 298 299 301 302 305 307 309 311 313 313 313 316 320 323 327 331 335 339 342 343 341 339 338 337 338 339 341 343 342 337 333 332 332 331 327
253 254 254 254 252 250 249 248 248 248 249 251 252 253 253 253 253 253 254 254 256 257 258 259 261 263 265 267 272 276 282 288 294 297 297 296 294 292 289 286 286 287 287 287 288 289 290 294 297 298 297 298 300 301 302 303 304 307 308 309 312 317 322 326 330 334 337 340 342 342 340 338 337 339 342 344 347 348 347 343 339 337 337 335 331
257 257 256 256 254 253 252 251 251 252 253 254 256 257 257 257 257 257 258 258 258 259 260 261 262 263 265 267 270 275 280 287 293 295 295 293 292 291 289 287 286 286 285 287 291 292 295 299 303 301 296 295 297 297 297 297 299 303 307 309 311 316 322 326 330 333 336 339 341 340 338 338 340 344 346 348 350 351 349 347 344 341 340 339 335
262 260 258 257 257 255 254 254 254 254 255 256 257 259 260 260 260 260 260 259 259 259 260 261 262 263 265 267 270 275 281 287 291 292 293 293 293 292 290 287 286 286 288 293 295 293 293 297 301 300 295 295 296 297 296 296 298 301 305 308 311 315 321 325 330 333 336 339 341 339 337 340 345 348 349 349 351 353 352 350 347 344 343 341 337
265 264 262 261 261 260 259 259 259 259 259 259 260 261 261 261 261 260 259 258 257 257 258 260 261 263 265 267 271 276 280 285 289 291 292 293 293 291 289 287 285 288 291 290 283 280 283 289 294 295 293 292 294 295 295 295 296 299 303 306 310 315 320 325 329 333 336 339 339 339 339 342 346 348 349 349 350 353 353 351 348 346 344 341 338
272 270 269 268 267 266 265 264 263 263 263 264 264 264 264 264 263 262 260 258 257 257 258 260 262 263 265 268 272 276 280 284 287 289 290 292 291 289 289 287 286 287 286 277 270 272 279 284 288 289 289 289 290 292 292 292 295 298 301 304 308 314 319 324 328 332 335 337 338 340 342 344 345 346 347 347 348 351 352 352 350 348 345 342 339
274 275 275 274 272 270 268 267 267 266 266 267 267 267 267 266 265 264 262 260 258 257 257 259 261 264 267 270 273 276 279 282 284 286 288 288 287 286 286 283 283 282 276 270 271 275 279 282 284 285 285 285 286 287 288 289 292 297 300 302 305 310 316 321 326 330 332 333 336 339 341 343 344 344 345 346 347 348 350 351 350 349 347 344 341
271 273 274 274 272 271 270 269 269 269 269 270 270 270 269 268 267 265 263 259 257 256 256 258 261 265 268 271 273 277 280 283 285 287 289 288 284 281 279 278 279 276 269 268 273 278 281 282 282 282 282 283 283 283 284 285 289 293 297 300 303 307 312 317 321 325 328 330 334 337 339 341 342 342 342 344 345 346 348 349 349 349 347 344 341
271 271 272 272 271 270 270 270 271 271 271 271 270 270 269 267 266 264 261 258 256 256 256 258 261 265 268 271 274 277 280 281 282 284 284 283 282 282 280 279 276 270 266 269 275 279 281 281 280 279 280 280 279 280 281 282 286 290 293 296 300 304 308 312 316 319 322 325 329 333 336 339 340 339 339 341 343 344 346 347 349 349 347 343 340
272 271 271 270 269 270 271 271 272 271 270 270 269 269 268 266 264 261 259 258 257 257 259 260 262 265 268 271 274 277 277 278 278 278 278 278 279 279 278 276 273 268 267 272 276 279 280 279 277 276 277 276 277 278 279 280 283 287 290 293 297 300 304 308 312 315 318 321 325 329 333 336 338 337 337 339 341 343 344 347 348 347 345 343 340
272 271 270 269 269 269 271 271 272 272 271 270 269 268 267 265 263 260 258 257 257 258 260 263 265 267 269 272 276 277 278 278 278 278 277 277 277 275 273 273 272 271 271 273 276 278 278 275 273 273 274 273 274 276 277 278 281 284 288 291 295 298 301 305 309 312 315 318 322 326 329 332 335 335 334 335 338 340 342 344 346 346 345 345 342
271 270 269 268 268 268 269 270 271 271 270 269 268 266 265 263 262 259 257 256 257 259 262 266 269 272 274 275 277 279 280 282 281 279 278 277 275 273 272 272 272 273 273 274 276 278 276 273 271 272 272 271 271 273 275 277 280 282 286 290 292 295 299 302 307 311 313 315 319 322 325 328 331 333 332 332 334 337 340 342 343 343 345 345 344
269 268 267 267 267 268 269 270 270 269 268 267 266 265 263 261 260 258 257 257 259 262 265 269 271 274 277 279 279 280 281 281 281 280 279 278 276 274 273 273 273 273 274 276 277 276 273 271 271 272 270 269 270 271 274 276 279 281 285 287 290 293 296 300 304 307 309 312 315 318 321 324 327 329 330 329 331 334 337 339 340 341 342 344 345
268 267 267 267 268 268 268 268 267 266 265 264 263 262 261 259 258 257 258 260 263 266 269 272 275 278 281 282 282 283 283 281 280 280 279 277 276 275 274 274 274 275 276 277 275 272 270 270 270 270 269 268 269 271 273 276 278 281 284 286 289 292 295 297 300 304 306 309 311 314 317 320 322 325 326 327 329 332 334 335 337 339 340 341 343
267 267 267 267 267 267 266 265 264 263 262 262 261 260 259 258 258 259 261 263 267 270 273 277 279 283 285 286 285 285 285 283 282 280 278 277 277 275 274 274 274 276 277 277 273 269 268 269 269 268 267 268 269 271 273 275 278 280 283 286 288 291 294 296 299 302 304 306 308 310 313 315 317 320 323 325 327 328 329 331 334 337 338 339 340
266 266 266 265 264 264 263 262 261 260 259 259 258 258 257 258 259 262 264 268 272 275 278 281 284 286 288 289 289 287 286 284 282 280 279 279 279 278 278 277 277 277 276 275 272 269 267 268 268 267 267 268 269 270 272 275 278 281 283 286 289 291 293 295 298 300 302 304 305 307 309 311 313 315 319 322 323 322 324 327 331 334 336 338 340
265 265 264 264 264 263 262 260 259 258 257 256 256 257 258 260 263 267 271 274 277 280 282 285 288 290 291 291 290 288 286 285 285 284 283 282 281 280 280 279 277 275 273 271 269 268 268 268 268 268 268 268 269 270 272 274 277 280 283 286 289 290 291 294 296 298 299 301 302 304 306 308 309 311 314 318 320 319 320 325 329 333 335 337 339
262 261 261 262 263 263 260 258 257 255 254 256 258 260 264 267 270 273 276 279 281 284 287 290 292 293 293 292 290 287 286 285 286 287 288 287 286 283 281 278 275 273 271 269 268 267 267 268 269 268 268 269 269 270 272 275 278 281 284 286 288 289 291 293 295 297 297 298 299 302 303 304 305 307 311 315 318 318 319 323 328 332 335 336 337
257 256 256 258 259 260 258 257 256 256 258 261 264 267 270 273 276 278 281 284 286 289 291 293 293 293 293 292 290 289 288 287 286 286 287 289 290 288 284 280 276 274 272 271 269 267 267 269 270 270 270 271 272 273 275 277 280 282 284 285 287 288 290 293 295 295 296 297 299 300 301 301 302 304 308 313 317 317 319 324 328 331 334 335 335
251 251 252 254 255 256 258 259 261 263 265 267 270 272 274 277 280 283 285 288 290 291 292 292 292 292 292 292 291 290 289 288 287 286 288 290 291 290 287 283 280 277 275 273 271 269 270 271 272 272 273 274 275 276 278 279 281 283 284 286 287 289 291 294 295 295 296 298 298 299 298 299 300 302 305 311 314 315 318 325 330 331 332 333 334
248 248 250 253 255 258 261 264 266 269 271 272 274 277 279 281 284 286 287 288 288 288 288 289 290 292 295 296 295 293 292 290 289 289 290 291 291 291 290 287 283 281 279 277 275 274 274 274 275 275 276 277 278 278 280 281 282 283 284 285 287 290 292 294 295 295 296 296 296 295 295 296 297 300 303 307 310 311 316 325 330 330 331 332 333
253 253 255 258 261 264 266 268 271 274 276 277 279 281 283 284 284 284 283 283 282 283 284 288 292 296 298 298 297 296 294 294 293 293 292 292 292 291 290 288 285 284 282 280 278 278 277 277 278 278 279 280 280 280 282 283 284 285 286 287 289 292 294 295 295 296 296 294 293 293 293 294 295 298 301 303 304 307 315 324 328 328 329 331 333
261 262 264 266 269 270 272 274 275 276 277 279 281 281 281 281 280 278 276 276 278 283 289 294 297 298 297 296 296 295 294 294 294 293 292 292 291 289 288 286 285 284 282 281 280 280 280 280 280 280 281 282 283 283 284 285 285 286 287 289 291 293 294 295 296 297 296 294 292 291 291 292 293 294 297 298 299 302 310 318 323 325 327 329 332
269 270 271 272 272 273 274 275 275 276 277 278 278 277 276 275 274 273 274 278 284 292 296 298 299 298 297 295 295 293 292 292 292 292 291 290 289 288 287 285 284 283 283 282 281 281 281 281 281 282 282 283 284 285 285 286 287 288 289 290 291 292 293 295 296 296 295 294 292 291 290 290 290 291 293 293 293 295 301 309 315 321 324 326 329
272 272 272 273 273 273 274 274 275 276 276 274 272 271 269 268 270 274 279 286 292 295 297 298 298 298 298 298 297 294 292 291 291 290 290 290 289 287 286 284 283 283 283 283 283 282 282 282 282 283 283 284 285 287 288 289 290 290 290 290 291 292 293 294 294 294 293 293 292 290 289 288 288 289 290 289 288 289 294 300 307 314 319 322 325
273 272 272 272 273 273 274 273 272 272 269 267 265 263 262 265 271 275 280 286 290 292 294 296 298 298 298 297 296 295 294 293 292 291 290 289 288 286 285 284 284 284 284 284 284 284 283 283 283 284 285 287 288 288 289 290 289 288 288 288 290 291 292 291 291 291 290 290 289 288 288 287 287 287 287 286 285 287 290 294 299 305 311 315 320